Regional Weather Roundup
Issued by NWS

Home | Current Version | Previous Version | Graphics & Text | Print | Product List | Glossary Off
Versions: 1 2 3 4 5 6 7 8 9 10 11 12 13 14 15 16 17 18 19 20 21 22 23 24 25 26 27 28 29 30 31 32 33 34 35 36 37 38 39 40 41 42 43 44 45 46 47 48 49 50

794
ASUS43 KTOP 040959
RWRKS

WEATHER ROUNDUP FOR KANSAS
NATIONAL WEATHER SERVICE GOODLAND KS
400 AM CST SUN DEC 04 2016

NOTE:  "FAIR" INDICATES FEW OR NO CLOUDS BELOW 12,000 FEET WITH NO
SIGNIFICANT WEATHER AND/OR OBSTRUCTIONS TO VISIBILITY.

KSZ001>006-013>018-027>032-041>047-041100-
NORTHWEST KANSAS

CITY           SKY/WX    TMP DP  RH WIND       PRES   REMARKS
GOODLAND       CLEAR     21  13  71 W13       30.02F WCI   9
HAYS           CLOUDY    31  30  96 W7        30.03F FOG
HILL CITY      CLEAR     29  27  92 W5        30.03S
RUSSELL        PTCLDY    31  31 100 W8        30.01F FOG
$$

KSZ061>065-074>080-084>089-041100-
SOUTHWEST KANSAS

CITY           SKY/WX    TMP DP  RH WIND       PRES   REMARKS
DODGE CITY     FOG       31  31 100 W12       30.05R VSB 1/4 WCI  22
ELKHART          N/A     24  17  74 NW7         N/A
GARDEN CITY    CLEAR     27  23  85 NW12      30.03F WCI  17
GREAT BEND     LGT RAIN  33  33 100 NW12      30.04S VSB 1/2 WCI  24
LIBERAL        MOCLDY    34  30  86 NW10      30.07R WCI  26
$$

KSZ066>073-081>083-090>101-041100-
SOUTHEAST KANSAS

CITY           SKY/WX    TMP DP  RH WIND       PRES   REMARKS
CHANUTE        LGT RAIN  40  39  97 SE5       30.02S FOG
COFFEYVILLE    LGT RAIN  42  41  96 E3        30.03S FOG
HUTCHINSON     LGT RAIN  40  37  89 W3        30.03F
MEDICINE LODGE   N/A     40  39  97 CALM      30.03F
NEWTON         LGT RAIN  39  38  96 NW5       30.03S
PARSONS        LGT RAIN  41  40  96 CALM      30.03F FOG
WICHITA INTL   LGT RAIN  41  40  96 N3        30.03S
WICHITA JABRA  LGT RAIN  40  40 100 CALM      30.03S
WICHITA MCCONL LGT RAIN  41  39  93 NE5       30.03S
WINFIELD       LGT RAIN  42  42 100 N6        30.04S FOG
$$

KSZ007>012-019>026-033>040-048>060-102>105-041100-
NORTHEAST KANSAS

CITY           SKY/WX    TMP DP  RH WIND       PRES   REMARKS
CONCORDIA      FOG       32  32 100 W10       30.03F VSB 1/2 WCI  24
EMPORIA        LGT RAIN  39  39 100 NW5       30.03S FOG
LAWRENCE       LGT RAIN  40  40 100 SE7       30.04S FOG
MANHATTAN      LGT RAIN  40  38  93 CALM      30.03F
OLATHE IND     LGT RAIN  39  38  96 S9        30.03F FOG
OLATHE EXE     LGT RAIN  38  37  97 S9        30.03F
SALINA         CLOUDY    40  38  93 CALM      30.04F
TOPEKA BILLARD LGT RAIN  40  38  93 CALM      30.04S FOG
TOPEKA FORBES  LGT RAIN  42  39  89 CALM      30.03F FOG
$$




USA.gov is the U.S. government's official web portal to all federal, state and local government web resources and services.